Other Public Products
Issued by NWS Grand Forks, ND

Home | Current Version | Previous Version | Graphics & Text | Print | Product List | Glossary On
Versions: 1 2 3 4 5 6 7 8 9 10 11 12 13 14 15 16 17 18 19 20 21 22 23 24 25 26 27 28 29 30 31 32 33 34 35 36 37 38 39 40 41 42 43 44 45 46 47 48 49 50
000
FPUS83 KFGF 260510
OPUFGF
PRAIRIE TO PINES WEATHER ROUNDUP
NATIONAL WEATHER SERVICE EASTERN NORTH DAKOTA/GRAND FORKS ND
1100 PM CST SUN JAN 25 2015

 **SATELLITE DATA USED TO AUGMENT SKY COVER AT AUTOMATED STATIONS**
 *****  WEATHER ACROSS EASTERN NORTH DAKOTA  *****

CITY           SKY/WX    TMP DP  RH WIND       PRES   REMARKS
GRAND FORKS    CLOUDY    28  24  85 S18G31    29.67F WCI  15
GRAND FORKS AF CLOUDY    28  25  86 SW23G30   29.63F WCI  14
GRAND CITY NWS   N/A     27 N/A N/A S14         N/A  WCI  15
BUXTON         NOT AVBL
DEVILS LAKE    MOCLDY    36  32  87 W20G28    29.64F
FARGO          CLOUDY    28  22  78 S15       29.81F WCI  16
WAHPETON ARPT  CLOUDY    28  23  80 S12       29.84F WCI  18
$$

 *****  WEATHER ACROSS CENTRAL AND WESTERN NORTH DAKOTA  *****

CITY           SKY/WX    TMP DP  RH WIND       PRES   REMARKS
JAMESTOWN      MOCLDY    30  27  88 S9        29.71F WCI  22
BISMARCK       PTCLDY    35  30  82 CALM      29.78F
MINOT          CLEAR     40  32  73 W18       29.69R
MINOT AFB      PTCLDY    38  37  98 W16       29.68R
GARRISON         N/A     38  33  82 W14       29.73F
WILLISTON      MOCLDY    43  34  70 W9G21     29.83R
DICKINSON      PTCLDY    42  34  73 W21       29.81S
HETTINGER      MOCLDY    40  34  79 W17       29.86S
$$

 *****  OTHER OBSERVATIONS NORTHEAST NORTH DAKOTA  *****

CITY           SKY/WX    TMP DP  RH WIND       PRES   REMARKS
WALHALLA         N/A     32  32 100 SW13G24   29.61F WCI  22
LANGDON        MOCLDY    30  28  93 SW17      29.60R WCI  18
CAVALIER       FAIR      28  27  93 SW14      29.62F WCI  17
GRAFTON        NOT AVBL
CANDO          MOCLDY    36  32  87 W25       29.61F
FORT TOTTEN    NOT AVBL
ROLLA          FAIR      32  32 100 W18       29.61R WCI  20
RUGBY          FAIR      36  32  87 W15       29.65F
 ***** THE ABOVE OBSERVATIONS ARE NON NWS ARE NOT QUALITY
        CONTROLLED AND MAY MIS-REPORT RAIN FOR SNOW...
$$

 *****  OTHER OBSERVATIONS SOUTHEAST NORTH DAKOTA *****

CITY           SKY/WX    TMP DP  RH WIND       PRES   REMARKS
COOPERSTOWN    NOT AVBL
VALLEY CITY    NOT AVBL
OAKES            N/A     30  30 100 S18G24    29.79F WCI  18
GWINNER        CLOUDY    32  32 100 SW18      29.80F WCI  20
BUFFALO        NOT AVBL
WYNDMERE         N/A     27  25  93 S7          N/A  WCI  19
 ***** THE ABOVE OBSERVATIONS ARE NON NWS ARE NOT QUALITY
       CONTROLLED AND MAY MIS-REPORT RAIN FOR SNOW...
$$

  *****  WEATHER ACROSS NORTHERN MINNESOTA  *****

CITY           SKY/WX    TMP DP  RH WIND       PRES   REMARKS
FLAG ISLAND    FLURRIES  19  18  93 S16       29.64F WCI   5
WARROAD        FLURRIES  23  19  86 S9G17     29.66F WCI  13
ROSEAU         CLOUDY    25  19  80 S18       29.67F WCI  11
HALLOCK        CLOUDY    27  21  80 S24G30    29.63F WCI  12
THF RVR FALLS  CLOUDY    25  19  80 S18G26    29.72F WCI  11
HALSTAD          N/A     27  21  79 S17         N/A  WCI  14
FOSSTON        CLOUDY    21  18  86 S21       29.76F WCI   6
BAUDETTE       LGT SNOW  21  18  88 S13       29.68F FOG     WCI   9
WASKISH        LGT SNOW  25  19  80 S7        29.74F WCI  17
CROOKSTON      CLOUDY    25  21  86 S21       29.74F WCI  10
$$
  *****  WEATHER ACROSS CENTRAL AND WEST MINNESOTA  *****

CITY           SKY/WX    TMP DP  RH WIND       PRES   REMARKS
BEMIDJI        CLOUDY    25  18  74 S8        29.76F WCI  16
PARK RAPIDS    CLOUDY    24  18  77 S12       29.81F WCI  13
WADENA         CLOUDY    23  19  86 S9        29.85F WCI  13
DETROIT LAKES  CLOUDY    27  19  74 S9        29.83F WCI  17
MOORHEAD       CLOUDY    27  25  93 S13G20    29.82F WCI  16
FERGUS FALLS   CLOUDY    25  21  86 S10       29.88F WCI  15
ELBOW LAKE     CLOUDY    25  23  91 S10       29.88F WCI  15
MORRIS MN      CLOUDY    27  25  93 S8        29.89F WCI  18
STAPLES        CLOUDY    25  21  86 S10       29.86F WCI  15
WHEATON        MOCLDY    25  23  93 S10       29.89F WCI  15
$$
  *****  WEATHER ELSEWHERE ACROSS MINNESOTA  *****

CITY           SKY/WX    TMP DP  RH WIND       PRES   REMARKS
DULUTH         CLOUDY    18  10  71 S7        29.89F WCI   9
INTRNTL FALLS  CLOUDY    23  14  68 S8        29.76F WCI  14
ELY            CLOUDY    16  12  86 S7        29.85F WCI   6
CLOQUET        CLOUDY    18  12  79 S5        29.90F WCI  11
BRAINERD       CLOUDY    24  17  74 S9        29.89F WCI  14
HIBBING        CLOUDY    20  12  71 S7        29.85F WCI  11
ALEXANDRIA     CLOUDY    25  22  88 S9        29.89F WCI  15
SAINT CLOUD    MOCLDY    23  17  78 S8        29.94F WCI  14
MINNEAPOLIS    CLOUDY    22  15  75 S7        30.00F WCI  13
$$

  *****  WEATHER ACROSS SOUTH DAKOTA  *****

CITY           SKY/WX    TMP DP  RH WIND       PRES   REMARKS
SIOUX FALLS    MOCLDY    32  30  92 S6        29.97F
BROOKINGS      NOT AVBL
WATERTOWN      CLOUDY    30  28  92 S12       29.87F WCI  20
HURON          PTCLDY    32  31  96 S9        29.91F WCI  24
SISSETON         N/A     31  27  85 S8        29.84F WCI  23
ABERDEEN       PTCLDY    31  29  92 S13       29.85F WCI  21
MITCHELL       PTCLDY    34  32  92 S9        29.95F
PIERRE         CLOUDY    33  28  81 S3        29.87F
MOBRIDGE       CLOUDY    35  30  82 S6        29.81F
RAPID CITY     CLEAR     38  27  64 N5        29.95S
$$

  *****  SOME WEATHER IN NEARBY STATES *****

CITY           SKY/WX    TMP DP  RH WIND       PRES   REMARKS
GLASGOW MT     CLEAR     40  33  76 SW3       29.91S
GREAT FALLS MT CLOUDY    54  28  36 SW23      30.08F
CHEYENNE WY    PTCLDY    45  24  43 NW12      30.20S
SCOTTSBLUFF NE CLEAR     33  29  85 N3        30.12R
OMAHA NE       PTCLDY    33  30  88 S3        30.06F
DES MOINES IA  CLOUDY    32  23  69 NW6       30.07F
DAVENPORT IA   PTCLDY    14   9  80 N7        30.06S WCI   4
CHICAGO IL     MOCLDY    24  15  68 NE9       29.99R WCI  14
EAU CLAIRE WI  MOCLDY    17   9  70 CALM      30.01F
LA CROSSE WI   MOCLDY    23  16  74 S6        30.04S WCI  16
$$

  *****  SOME NATIONAL WEATHER *****

CITY           SKY/WX    TMP DP  RH WIND       PRES   REMARKS
LA GUARDIA NY  CLOUDY    30  12  47 NE10      30.00R WCI  21
RALEIGH NC     MOCLDY    43  33  68 S5        29.81F
ATLANTA GA     PTCLDY    43  41  93 SW3       29.75R
NEW ORLEANS LA PTCLDY    52  43  71 W12       29.99R
OKLAHOMA CITY  CLEAR     40  26  57 NW3       30.17R
ALBUQUERQUE NM CLEAR     43  24  47 N7        30.32R
SALT LAKE CITY CLEAR     35  30  82 CALM      30.41R
LOS ANGELES CA MOCLDY    66  33  29 CALM      30.03R
BOISE ID       PTCLDY    32  29  88 CALM      30.41F FOG
SEATTLE WA     PTCLDY    48  45  89 N7        30.01F
$$

*** WEATHER ACROSS MANITOBA...SASKATCHEWAN AND ONTARIO ***
                ***ONTARIO***

CITY           SKY/WX    TMP DP  RH WIND       PRES   REMARKS
GERALDTON      CLOUDY    -4 -11  71 S6        29.92F WCI -16
THUNDER BAY    FLURRIES   7   1  78 VRB2      29.98F
SIOUX LOOKOUT  FLURRIES  14   9  79 S8        29.73F WCI   3
TORONTO        CLOUDY    10   0  61 NE10      30.06S WCI  -3
BIG TROUT LK   LGT SNOW   3   0  85 SE6       29.77F WCI  -8
PICKLE LAKE    NOT AVBL
DRYDEN         FLURRIES  18  12  79 S13       29.70F WCI   4
KENORA         LGT SNOW  16  12  86 S14       29.64F VSB 1   WCI   1
$$
                *** MANITOBA***

CITY           SKY/WX    TMP DP  RH WIND       PRES   REMARKS
BRANDON        CLEAR     30  28  93 W20       29.58S WCI  18
DAUPHIN        MOCLDY    36  30  80 W20       29.53S
ISLAND LAKE    FLURRIES   9   5  85 E6        29.59S WCI  -1
PILOT MOUND      N/A     28  27  93 SW12        N/A  WCI  18
THE PAS        CLOUDY    27  23  86 NW15G23   29.52R WCI  15
THOMPSON       LGT SNOW   3   0  85 NE8       29.62R WCI -10
WINNIPEG       CLOUDY    25  21  86 S23       29.59F WCI  10
LYNN LAKE      CLOUDY     5   1  85 NE6       29.64R WCI  -6
CHURCHILL      CLEAR    -15 -20  76 E10       29.88R WCI -35
GILLAM         LGT SNOW   1  -2  85 E6        29.72R WCI -10
$$
                ***SASKATCHEWAN***

CITY           SKY/WX    TMP DP  RH WIND       PRES   REMARKS
ESTEVAN        MOCLDY    37  32  81 W14G21    29.74R
KINDERSLEY     MOCLDY    36  30  80 SW6       29.87R
LLOYDMINSTER   CLEAR     36  27  69 W16       29.80R
PRINCE ALBERT  CLEAR     39  30  70 W14G23    29.66R
REGINA         PTCLDY    37  32  81 W17       29.77R
YORKTON        CLEAR     37  30  75 W17       29.61R



USA.gov is the U.S. government's official web portal to all federal, state and local government web resources and services.